Regional Weather Roundup
Issued by NWS Cleveland, OH

Home | Current Version | Previous Version | Graphics & Text | Print | Product List | Glossary On
Versions: 1 2 3 4 5 6 7 8 9 10 11 12 13 14 15 16 17 18 19 20 21 22 23 24 25 26 27 28 29 30 31 32 33 34 35 36 37 38 39 40 41 42 43 44 45 46 47 48 49 50
000
ASUS41 KCLE 231100
RWRCLE
OHIO REGIONAL WEATHER ROUNDUP
NATIONAL WEATHER SERVICE WILMINGTON, OH
700 AM EDT THU OCT 23 2014

NOTE: "FAIR" INDICATES FEW OR NO CLOUDS BELOW 12,000 FEET WITH NO
SIGNIFICANT WEATHER AND/OR OBSTRUCTIONS TO VISIBILITY.

OHZ001>008-015>018-024>027-034-035-043-044-231200-
   NORTHWEST OHIO

CITY           SKY/WX    TMP DP  RH WIND       PRES   REMARKS
DEFIANCE       FOG       31  28  89 CALM      30.27R VSB 1/2
FINDLAY        FOG       35  33  92 NW3       30.24S VSB 1/4
TOLEDO EXPRESS CLEAR     34  33  96 CALM      30.25S FOG
TOLEDO METCALF CLEAR     37  34  89 NW3       30.26S
LIMA           FOG       34  32  92 W5        30.24S VSB 3/4 WCI  30
$$

OHZ009>014-019>023-028>033-038-089-231200-
   NORTHEAST OHIO

CITY           SKY/WX    TMP DP  RH WIND       PRES   REMARKS
CLE-HOPKINS    PTCLDY    47  42  83 N6        30.23R
CLE-LAKEFRONT  PTCLDY    51  45  79 N12       30.20S
CUY CO. ARPT   PTCLDY    66  46  48 N6        30.20
LORAIN-ELYRIA  PTCLDY    42  42 100 NW5       30.22R
ASHTABULA      PTCLDY    45  42  89 CALM      30.18S
AKRON-CANTON   CLOUDY    46  43  89 NW8       30.18S FOG
WOOSTER        NOT AVBL
MANSFIELD      CLOUDY    42  42 100 NW6       30.21S FOG
YOUNGSTOWN     CLOUDY    44  42  93 NW7       30.16R
$$

OHZ042-051>053-060>062-070>072-077>081-231200-
  SOUTHWEST OHIO

CITY           SKY/WX    TMP DP  RH WIND       PRES   REMARKS
CINC-COVINGTON CLEAR     42  37  82 CALM      30.25R
CINC-LUNKEN    CLEAR     39  38  96 NE3       30.27R FOG
HAMILTON       CLEAR     34  33  96 CALM      30.27R FOG
DAYTON         NOT AVBL
WRIGHT-PAT AFB CLEAR     41  39  93 CALM      30.24S FOG
DAYTON GENERAL CLEAR     39  37  92 NE3       30.24S
WILMINGTON     CLEAR     36  34  92 N3        30.24R
$$

OHZ036-037-039>041-045>050-054>059-063>069-073>076-082>088-231200-
  CENTRAL AND SOUTHEAST OHIO

CITY           SKY/WX    TMP DP  RH WIND       PRES   REMARKS
COLUMBUS       CLEAR     40  38  93 N6        30.22F
OSU AIRPORT    CLEAR     39  37  92 NW5       30.22F
BOLTON FIELD   NOT AVBL
RICKENBACK AFB NOT AVBL
NEWARK         PTCLDY    40  37  89 NW5       30.22S FOG
MARION         PTCLDY    36  35  96 NW5       30.23F FOG
LANCASTER      PTCLDY    40  38  93 NW3       30.22F FOG
ZANESVILLE     CLEAR     41  39  93 CALM      30.20S
NEW PHILLY     MOCLDY    45  43  93 NW5       30.19S
$$



USA.gov is the U.S. government's official web portal to all federal, state and local government web resources and services.